Talkeetna, AK

12:52 PM AKDT on July 23, 2016 (GMT -0800)
Talkeetna

Weather History for PATK - March, 2013

Change the Weather History Date:

Sunday, March 3, 2013

  Actual Average Record
Temperature  
Mean Temperature 19 °F -  
Max Temperature 35 °F 28 °F 42 °F (1957)
Min Temperature 3 °F 4 °F -32 °F (1951)
Degree Days  
Heating Degree Days 46    
Moisture  
Dew Point 10 °F    
Average Humidity 59    
Maximum Humidity 88    
Minimum Humidity 30    
Precipitation  
Precipitation 0.00 in - - ()
Snow  
Snow 0.00 in - - ()
Snow Depth 30.00 in    
Sea Level Pressure  
Sea Level Pressure 30.32 in    
Wind  
Wind Speed 4 mph (North)    
Max Wind Speed 9 mph    
Max Gust Speed -    
Visibility 10 miles    
Events      
Averages and records for this station are not official NWS values.
T = Trace of Precipitation, MM = Missing Value Source: NWS Daily Summary

Daily Weather History Graph

Daily Weather History Graph

Search for Another Location

Airport or City:

Trip Planner

Search our weather history database for the weather conditions in past years. The results will help you decide how hot, cold, wet, or windy it might be!

Date:

Astronomy

Mar. 03, 2013 Rise Set
Actual Time 7:55 AM AKST 6:30 PM AKST
Civil Twilight 7:10 AM AKST 7:15 PM AKST
Nautical Twilight 6:19 AM AKST 8:07 PM AKST
Astronomical Twilight 5:25 AM AKST 9:00 PM AKST
Moon 2:21 AM AKST (3/3) 9:12 AM AKST (3/3)
Length of Visible Light 12h 04m
Length of Day
10h 34m
Waning Gibbous, 62% of the Moon is Illuminated
Mar 3
Waning Gibbous
Mar 4
Last Quarter
Mar 11
New
Mar 19
First Quarter
Mar 27
Full

Hourly Weather History & Observations

Time (AKST) Temp. Windchill Dew Point Humidity Pressure Visibility Wind Dir Wind Speed Gust Speed Precip Events Conditions
12:53 AM 14.0 °F 6.5 °F 10.9 °F 88% 30.15 in 10.0 mi NNW 4.6 mph - N/A   Clear
1:53 AM 19.0 °F 13.9 °F 12.9 °F 77% 30.15 in 10.0 mi NNE 3.5 mph - N/A   Mostly Cloudy
3:53 AM 9.0 °F - 6.1 °F 88% 30.19 in 10.0 mi Calm Calm - N/A   Clear
4:53 AM 6.1 °F -0.9 °F 3.0 °F 87% 30.20 in 10.0 mi NE 3.5 mph - N/A   Clear
5:53 AM 6.1 °F - 3.0 °F 87% 30.22 in 10.0 mi Calm Calm - N/A   Clear
6:53 AM 10.0 °F - 5.0 °F 80% 30.24 in 10.0 mi Calm Calm - N/A   Clear
7:53 AM 12.9 °F 5.2 °F 7.0 °F 77% 30.26 in 10.0 mi North 4.6 mph - N/A   Clear
8:53 AM 16.0 °F 7.4 °F 8.1 °F 71% 30.27 in 10.0 mi North 5.8 mph - N/A   Clear
9:53 AM 19.0 °F 12.3 °F 9.0 °F 65% 30.29 in 10.0 mi NNW 4.6 mph - N/A   Clear
10:53 AM 24.1 °F 19.7 °F 10.9 °F 57% 30.31 in 10.0 mi Variable 3.5 mph - N/A   Clear
11:53 AM 28.0 °F 22.8 °F 12.0 °F 51% 30.32 in 10.0 mi NNW 4.6 mph - N/A   Clear
12:53 PM 30.0 °F 25.2 °F 12.0 °F 47% 30.34 in 10.0 mi North 4.6 mph - N/A   Clear
1:53 PM 32.0 °F 27.5 °F 12.9 °F 45% 30.34 in 10.0 mi Variable 4.6 mph - N/A   Clear
2:53 PM 34.0 °F 29.8 °F 14.0 °F 44% 30.33 in 10.0 mi North 4.6 mph - N/A   Clear
3:53 PM 35.1 °F 27.9 °F 12.0 °F 39% 30.35 in 10.0 mi NNE 9.2 mph - N/A   Clear
4:53 PM 33.1 °F 28.7 °F 10.9 °F 40% 30.37 in 10.0 mi NNE 4.6 mph - N/A   Clear
5:53 PM 33.1 °F 28.7 °F 10.9 °F 40% 30.38 in 10.0 mi North 4.6 mph - N/A   Clear
6:53 PM 30.0 °F 26.5 °F 12.0 °F 47% 30.40 in 10.0 mi North 3.5 mph - N/A   Clear
7:53 PM 28.9 °F 23.9 °F 12.9 °F 51% 30.42 in 10.0 mi North 4.6 mph - N/A   Clear
8:53 PM 28.0 °F 24.2 °F 12.9 °F 53% 30.43 in 10.0 mi NNW 3.5 mph - N/A   Clear
9:53 PM 27.0 °F 21.6 °F 12.9 °F 56% 30.45 in 10.0 mi North 4.6 mph - N/A   Clear
10:53 PM 25.0 °F 18.1 °F 12.9 °F 60% 30.46 in 10.0 mi North 5.8 mph - N/A   Clear
11:53 PM 23.0 °F - 12.9 °F 65% 30.48 in 10.0 mi Calm Calm - N/A   Clear